Showing default

GSAT 9, 42695

Orbit data source: Space-Track

GSAT 9, 42695 is a payload satellite owned by ISRO (IN) in GEO that was launched on Fri, 05 May 2017 UTC via a GSLV MK II launch vehicle from the Sirharikota (SRI). Payload-class satellites include a variety of spacecraft equipped with specific instruments for various scientific and technological missions. These include communications satellites like Starlink; space stations such as the ISS; scientific satellites like the Hubble; Earth observation satellites from companies like Planet Labs, Umbra, and HawkEye 360; GPS; miniature CubeSats for education and research; and military/defense satellites.

Not visible in the next 10 days
Identifier
42695, 2017-024A
Orbit
GEO
Country
Flag of ININ / IND
Related business
Manufacturer
ISRO
Mission
Operational Civil Communications
Bus & Motor
I2K, ISRO LAM
Mass
2,230 kg wet, 976 kg dry
Launch date (UTC)
2017-05-05 (9 years ago)
Launch vehicle
GSLV MK II
Launch site
Sirharikota (SRI)
Object type
Payload
Rocket body
Debris
Shape & HBR
Box + 2 Pan, 4.8 m
Radar Cross Section
8.526 m², Large (>1 m²)

Expand to show TLE details & history
Last TLE update: 2 days ago

TLE from 2 days ago
0 GSAT 9
1 42695U 17024A   26171.41126538 -.00000290  00000-0  00000+0 0  9998
2 42695   0.0153  66.8126 0002519  18.5927  68.5717  1.00267932 33331
Epoch: 2026-06-20T09:52Z
TLE epoch observation values (Epoch: 2026-06-20T09:52:13.328Z)
Latitude
0.02062°
Longitude
97.33446°
Altitude
35,783.266 km
Speed
3.075 km/s
True Right ascension
10h 16m 03s
True Declination
0° 01' 14"
Sunlit
Object was in daylight at epoch
Visualization orbit readout
Latitude
Unknown
Longitude
Unknown
Altitude
Unknown
Speed
Unknown
Apparent Right ascension
Unknown
Apparent Declination
Unknown
Sunlit
N/A
Visualization observer readout
Local Sidereal Time
21:42:03
Azimuth
Unknown
Elevation
Unknown
Doppler factor
Unknown
Orbital elements
Apogee altitude
35,799.367 km
Perigee altitude
35,778.124 km
Semi-major axis
42,166.882 km
Eccentricity
0.00025
Inclination
0.0153°
RAAN
66.8126°
Arg. of periapsis
18.5927°
True anomaly
68.59857°
Mean anomaly
68.5717°
Eccentric anomaly
68.58514°
Mean motion
0.25066 °/min
Orbital period
1,436.21 mins
BSTAR
0
Loading maneuver chart data...
Computing Atmospheric mass density...
Loading historical data...
Loading historical data...
Loading historical data...
Loading historical data...
Loading historical data...
Loading historical data...
Loading historical data...
Other satellites on launch #24 in the year 2017 (2017-05-05 UTC)

Documentation

Showing up to 5 results
|